Weather in Almaznyy

Russia / Sakha (Yakutia) Republic     62°26′59″N   114°19′43″E
temp.,
°C
wind,
m/s
gust,
m/s
humid.,
%
clouds,
%
prec.,
mm/h
press.,
hPa
HPBL,
m
17 may, tue
tue1700:00+3nnw12875 0.0 100610
03:00+2nw11895 0.0 100610
06:00+3w118968 0.0 100511
09:00+5nnw0086100 0.0 100467
12:00+10n246698 0.0 1002633
15:00+8nne357870 0.1 1002600
18:00+7nne4782100 0.0 1004649
21:00+5nne378183 0.0 1006595
18 may, wed
wed1800:00+3n2577100 0.0 1007146
03:00+3nne2379100 0.0 1008119
06:00+2ne128455 0.0 1010163
09:00+5ne11658 0.0 1010770
12:00+9sw11516 0.0 10091154
15:00+13ssw1242100 0.0 10081327
18:00+13s2341100 0.0 10061296
21:00+11ese3760100 0.0 1004183
19 may, thu
thu1900:00+9sse41268100 0.1 1001467
03:00+9s51373100 0.3 997578
06:00+11wsw41090100 2.6 993586
09:00+13w697778 2.7 993932
12:00+13w6973100 0.9 9931151
15:00+13wnw6106685 1.4 9931461
18:00+9w61073100 0.3 9961326
21:00+7w5787100 0.3 997885
20 may, fri
fri2000:00+6nw2489100 0.1 998893
03:00+5nne5893100 0.4 1001629
06:00+4nne4993100 0.2 1005823
09:00+5nne4882100 0.3 1009759
12:00+7n3553100 0.1 10111508
15:00+10n344387 0.1 10111842
18:00+10n334689 0.0 10121656
21:00+8ne22595 0.0 101340
21 may, sat
sat2100:00+4se227525 0.0 101321
03:00+3sse118399 0.0 101310
06:00+4sse1179100 0.0 101324
09:00+7s2363100 0.0 1011425
12:00+11sse4545100 0.0 10091458
15:00+13s4539100 0.0 10071889
18:00+12s3447100 0.0 10051709
21:00+8sw3783100 0.2 1006389